www.pogodaiklimat.ru

Погода и климат >> Архив погоды >> Антарктида >> Dumont Durville


ПОГОДА в Dumont Durville

  • Прогноз погоды в Dumont Durville
  • Монитор погоды в Dumont Durville
  • Климат города

АРХИВ ПОГОДЫ в Dumont Durville

Время (UTC), дата Ветер
(напр.,м/с)
 
Видим.   Явления Облачность Т
(С)
Тd
(С)
f
(%)
Тe
(С)
Тes
(С)
Комфортность P
(гПа)
Po
(гПа)
Тmin
(С)
Tmax
(С)
R
(мм)
R24
(мм)
S
(см)
00 14.11 ЮВ 17-25
{29}
15 км 9/4 1000 м
[Sc Ac As]
-5.4 -13.0 55 -17 -17 963.3 958.0 -8.0 -5.4
03 14.11 ЮВ 17-28
{28}
20 км 9/3 1200 м
[Sc Ac As]
-4.3 -12.2 54 -15 -15 963.6 958.4
06 14.11 ЮВ 16-24
{28}
20 км 9/3 1500 м
[Sc Ac As]
-3.9 -12.6 51 -14 -14 965.3 960.1
09 14.11 ЮВ 14-22
{26}
20 км 9/3 1500 м
[Sc Ac As]
-4.6 -14.0 48 -15 -15 967.3 962.0
12 14.11 ЮВ 10-16
{26}
н/о н/о -5.4 -15.8 44 -14 -14 970.0 964.7 -5.9 -3.2
15 14.11 В 10
{22}
н/о н/о -7.3 -15.7 51 -17 -17 972.0 966.7
18 14.11 ЮВ 10-15
{22}
н/о н/о -8.6 -17.9 47 -19 -19 974.5 969.1
21 14.11 ЮВ 7
{20}
20 км 10/10 1000 м
[]
-7.4 -15.4 53 -16 -16 977.1 971.7
00 15.11 В 8
{20}
10 км 10/4 1000 м
[Sc As trans]
-6.1 -14.4 52 -15 -14 979.3 973.9 -8.8 -5.4
03 15.11 В 5 20 км 9/3 1000 м
[Sc As trans]
-3.9 -12.3 52 -10 -9 980.3 975.0
06 15.11 СВ 3 15 км в посл. час снег 10/5 1000 м
[Sc As trans]
-4.5 -10.9 61 -9 -8 981.4 976.1
09 15.11 В 2 10 км 10/6 480 м
[Sc As op]
-5.2 -10.2 68 -8 -8 981.8 976.4
12 15.11 В 5 н/о н/о -6.7 -12.8 62 -14 -14 981.8 976.4 -6.7 -3.4
15 15.11 В 7 н/о н/о -8.1 -14.9 58 -17 -17 981.4 976.0
18 15.11 ЮВ 7 н/о н/о -8.7 -16.8 52 -17 -17 981.4 976.0
21 15.11 В 6 20 км 9/0
[]
-8.6 -16.5 53 -16 -16 981.6 976.2
00 16.11 В 4 25 км 3/0
[Ac lent]
-5.8 -15.1 48 -11 -7 981.9 976.5 -9.1 -5.8
03 16.11 С 1 25 км 1/0
[Ac trans Ci fib]
-3.3 -14.7 41 -5 +7 981.8 976.5
06 16.11 Ю 2 25 км 1/0
[Ac trans Ci fib]
-4.7 -15.4 43 -8 -2 981.5 976.2
09 16.11 ЮЗ 1 25 км 5/0
[Ci fib]
-4.4 -15.7 41 -6 -4 981.7 976.4
12 16.11 Ю 4 н/о н/о -9.3 -15.1 63 -16 -16 982.4 977.0 -9.3 -2.9
15 16.11 ЮВ 8 н/о н/о -12.1 -21.4 46 -22 -22 982.3 976.8
18 16.11 ЮВ 8 н/о н/о -12.2 -22.5 42 -22 -22 982.9 977.4
21 16.11 ЮВ 4 н/о н/о -10.4 -20.6 43 -17 -17 984.1 978.6
00 17.11 ЮЗ 2 н/о н/о -7.9 -21.4 33 -11 -11 985.2 979.8 -12.7 -6.6
03 17.11 З 3 25 км 1/1 1500 м
[Sc]
-4.3 -17.8 34 -9 -1 986.4 981.0
06 17.11 З 7 н/о н/о -5.5 -14.5 49 -13 -13 987.1 981.7
09 17.11 З 7 25 км 1/1 1500 м
[Sc Ci fib]
-5.8 -11.9 62 -14 -13 988.2 982.8
12 17.11 Ю 5 н/о н/о -9.6 -15.5 62 -17 -17 989.5 984.0 -9.6 -3.8
15 17.11 Ю 6 н/о н/о -12.0 -20.6 49 -21 -21 991.4 985.8
18 17.11 В 2
{13}
н/о н/о -12.0 -22.3 42 -16 -16 994.1 988.5
21 17.11 ЮВ 3 15 км 10/10 1500 м
[]
-8.9 -19.5 42 -14 -14 995.3 989.8
00 18.11 В 8 15 км 10/4 1500 м
[Sc Ac As]
-6.6 -16.3 46 -15 -15 995.6 990.1 -12.6 -6.2
03 18.11 В 10-17
{17}
10 км 10/5 1000 м
[Sc Ac As]
-6.9 -13.8 58 -17 -17 994.2 988.7
06 18.11 В 16-26
{26}
500 м слабый снег {метель} ?/? -7.2 -8.3 92 -19 -19 991.6 986.2
09 18.11 В 19-26
{27}
500 м слабый снег ?/? -5.7 -6.5 94 -18 -18 989.2 983.8
12 18.11 В 16-26
{28}
500 м слабый снег ?/? -5.2 -5.9 95 -17 -17 989.3 983.9 -8.1 -5.2
15 18.11 В 13-20
{28}
н/о н/о -4.9 -5.6 95 -16 -16 991.5 986.1
18 18.11 В 10-15
{28}
н/о н/о -4.3 -5.0 95 -14 -14 993.3 987.9
21 18.11 В 10
{16}
5000 м 10/10 480 м
[]
-4.0 -4.7 95 -13 -13 995.4 990.0
00 19.11 В 4
{16}
4000 м снежные зёрна 10/10 480 м
[Sc]
-3.6 -4.6 93 -10 -10 997.1 991.7 -5.2 -3.3
03 19.11 В 3 12 км {снег} 10/10 800 м
[Sc]
-2.8 -4.7 87 -8 -8 997.2 991.8
06 19.11 В 1 20 км {снег} 8/3 840 м
[Sc Ac trans]
-1.1 -4.6 77 -3 0 997.2 991.8
09 19.11 ЮВ 1 15 км 4/0
[Ac trans]
-2.9 -5.7 81 -4 -2 996.8 991.4
12 19.11 З 2 н/о н/о -3.9 -5.6 88 -7 -7 997.3 991.9 -4.2 -0.8
15 19.11 Ю 1 н/о н/о -4.5 -7.0 83 -7 -7 996.2 990.8
18 19.11 Ю 6 н/о н/о -8.2 -12.9 69 -16 -16 995.8 990.3
21 19.11 ЮЗ 9 30 км ясно -7.3 -12.8 65 -17 -17 995.2 989.7
00 20.11 ЮЗ 4
{14}
н/о н/о -3.1 -11.8 51 -8 -8 994.6 989.2 -8.6 -3.1
03 20.11 З 11 25 км ясно -2.0 -8.3 62 -11 -10 993.8 988.4
06 20.11 З 12
{18}
н/о н/о -0.9 -6.1 68 -10 -10 993.3 988.0
09 20.11 З 11
{20}
25 км ясно -1.0 -9.9 51 -9 -9 993.6 988.3
12 20.11 Ю 9
{20}
н/о н/о -7.2 -14.5 56 -17 -17 993.9 988.4 -7.2 +0.3
15 20.11 Ю 10 н/о н/о -9.8 -15.5 63 -20 -20 992.9 987.4
18 20.11 Ю 9 н/о н/о -10.2 -15.5 65 -20 -20 991.3 985.8
21 20.11 Ю 5 25 км 3/3 1000 м
[]
-9.3 -16.1 58 -17 -15 989.2 983.7

 

Местоположение метеостанции Dumont Durville (Антарктида): широта -66.66 долгота 140.01 высота над уровнем моря 43 м.

В архиве по умолчанию представлена погода в Dumont Durville за последнюю неделю. Архивные данные за месяц целиком и за предыдущие месяцы, начиная с января 2011 года, Вы можете получить, выбрав интересующий диапазон дат из раскрывающегося списка и нажав кнопку "Ввод!".


*Определитесь, кто Вы:
робот инопланетянин человек

Внимание! Время в таблицах - всемирное. Для получения местного времени необходимо прибавить поправку, которая в Dumont Durville равна 0 ч.

Смотрите также архив погоды в соседних городах и на ближайших метеорологических станциях:

Погода в D-47 (Антарктида) (98 км)
Погода в Sitry Point (Антарктида) (651 км)
Погода в Mid Point (Антарктида) (691 км)
Погода в Leningradskaya (Антарктида) (860 км)
Погода в Dome C II (Антарктида) (1110 км)
Погода в Macquarie Island (Австралия) (1688 км)

Пояснения к столбцам:

Ветер - указаны скорость ветра в м/с - средняя за 10 мин, порывы в срок и между сроками (в фигурных скобках) и направление, откуда дует ветер: С - северный, СВ - северо-восточный, В - восточный, ЮВ - юго-восточный, Ю - южный, ЮЗ - юго-западный, З - западный, СЗ - северо-западный.
Видимость - горизонтальная дальность видимости в метрах или километрах. При видимости от 1 до 10 км при отсутствии осадков обычно наблюдается дымка, при ухудшении видимости до 1 км и менее - туман. В сухую погоду видимость может ухудшаться дымом, пылью или мглою.
Явления - указаны атмосферные явления, наблюдавшиеся в срок или в последний час перед сроком; фигурными скобками обозначены явления, наблюдавшиеся между сроками (за 1-3 часа до срока); квадратными скобками обозначены град или гололедные отложения с указанием их диаметра в мм.
Облачность - указаны через наклонную черту общая и нижняя облачность в баллах и высота нижней границы облаков в метрах; квадратными скобками обозначены формы облаков: Ci - перистые, Cs - перисто-слоистые, Cc - перисто-кучевые, Ac - высококучевые, As - высокослоистые, Sc - слоисто-кучевые, Ns - слоисто-дождевые, Cu - кучевые, Cb - кучево-дождевые. Подробнее классификацию облаков см. в Атласе облаков (PDF).
T - Температура воздуха - температура, измеренная на высоте 2 м над землей.
Td - Температура точки росы - температура, при понижении до которой содержащийся в воздухе водяной пар достигнет насыщения.
f - Относительная влажность воздуха - влажноcть воздуха, измеренная на высоте 2 м над землей.
Te - Эффективная температура - температура, которую ощущает одетый по сезону человек в тени. Характеристика душности погоды. При расчете учитывается влияние влажности воздуха и скорости ветра на теплоощущения человека.
Tes - Эффективная температура на солнце - температура, которую ощущает человек, с поправкой на солнечный нагрев. Характеристика знойности погоды. Зависит от высоты солнца над горизонтом, облачности и скорости ветра. Ночью, в пасмурную погоду, а также при ветре 12 м/с и более поправка равна нулю.
P - Атмосферное давление - приведенное к уровню моря атмосферное давление.
Po - Атмосферное давление - измеренное на уровне метеостанции атмосферное давление.
Tmin - Минимальная температура - минимум температуры воздуха на высоте 2 м над землей.
Tmax - Максимальная температура - максимум температуры воздуха на высоте 2 м над землей.
R - Количество осадков - Количество выпавших осадков за период времени, мм. При наведении курсора мыши на число - период времени, за который выпало указанное количество осадков.
R24 - Количество осадков - Количество выпавших осадков за 24 часа, мм.
S - Снежный покров - Высота снежного покрова, см. При наведении курсора мыши на число - состояние снежного покрова и степень покрытия местности в баллах.